Gainesville, TX

8:37 AM CST on December 12, 2017 (GMT -0600)
Gainesville Municipal

Weather History for KGLE - March, 2013

Change the Weather History Date:

Friday, March 8, 2013

  Actual Average (KDTO) Record (KDTO)
Temperature  
Mean Temperature 54 °F -  
Max Temperature 57 °F 60 °F 80 °F (2011)
Min Temperature 50 °F 39 °F 21 °F (2008)
Degree Days  
Heating Degree Days 12    
Growing Degree Days 4 (Base 50)    
Moisture  
Dew Point 48 °F    
Average Humidity 81    
Maximum Humidity 94    
Minimum Humidity 50    
Precipitation  
Precipitation 0.00 in - - ()
Sea Level Pressure  
Sea Level Pressure 30.10 in    
Wind  
Wind Speed 10 mph (SE)    
Max Wind Speed 20 mph    
Max Gust Speed 23 mph    
Visibility 10 miles    
Events Rain    
Averages and records for this station are not official NWS values.
T = Trace of Precipitation, MM = Missing Value Source: NWS Daily Summary

Daily Weather History Graph

Daily Weather History Graph

Search for Another Location

Airport or City:

Trip Planner

Search our weather history database for the weather conditions in past years. The results will help you decide how hot, cold, wet, or windy it might be!

Date:

Astronomy

Mar. 08, 2013 Rise Set
Actual Time 6:48 AM CST 6:31 PM CST
Civil Twilight 6:23 AM CST 6:56 PM CST
Nautical Twilight 5:54 AM CST 7:25 PM CST
Astronomical Twilight 5:25 AM CST 7:54 PM CST
Moon 4:25 AM CST (3/8) 3:34 PM CST (3/8)
Length of Visible Light 12h 33m
Length of Day
11h 43m
Waning Crescent, 11% of the Moon is Illuminated
Mar 8
Waning Crescent
Mar 11
New
Mar 19
First Quarter
Mar 27
Full
Apr 2
Last Quarter

Hourly Weather History & Observations

Time (CST) Temp. Dew Point Humidity Pressure Visibility Wind Dir Wind Speed Gust Speed Precip Events Conditions
12:15 AM 50.0 °F 32.0 °F 50% 30.12 in 10.0 mi SE 8.1 mph - N/A   Clear
12:35 AM 50.0 °F 33.8 °F 54% 30.14 in 10.0 mi SSE 5.8 mph - N/A   Clear
12:55 AM 50.0 °F 35.6 °F 58% 30.13 in 10.0 mi SE 5.8 mph - N/A   Clear
1:15 AM 50.0 °F 35.6 °F 58% 30.13 in 10.0 mi ESE 5.8 mph - N/A   Clear
1:35 AM 50.0 °F 33.8 °F 54% 30.12 in 10.0 mi SE 8.1 mph - N/A   Clear
1:55 AM 51.8 °F 35.6 °F 54% 30.14 in 10.0 mi SE 6.9 mph - N/A   Clear
2:15 AM 51.8 °F 37.4 °F 58% 30.13 in 10.0 mi SE 10.4 mph - N/A   Clear
2:35 AM 51.8 °F 39.2 °F 62% 30.13 in 10.0 mi SE 6.9 mph - N/A   Clear
2:55 AM 51.8 °F 41.0 °F 67% 30.12 in 10.0 mi SE 8.1 mph - N/A   Clear
3:15 AM 50.0 °F 39.2 °F 66% 30.12 in 10.0 mi SE 5.8 mph - N/A   Clear
3:35 AM 50.0 °F 39.2 °F 66% 30.12 in 10.0 mi SE 4.6 mph - N/A   Clear
3:55 AM 50.0 °F 41.0 °F 71% 30.12 in 10.0 mi ESE 6.9 mph - N/A   Clear
4:15 AM 50.0 °F 41.0 °F 71% 30.12 in 10.0 mi SE 6.9 mph - N/A   Clear
4:35 AM 50.0 °F 42.8 °F 76% 30.12 in 10.0 mi SE 8.1 mph - N/A   Clear
4:55 AM 50.0 °F 42.8 °F 76% 30.12 in 10.0 mi SE 6.9 mph - N/A   Clear
5:15 AM 50.0 °F 42.8 °F 76% 30.13 in 10.0 mi SE 5.8 mph - N/A   Scattered Clouds
5:35 AM 50.0 °F 42.8 °F 76% 30.14 in 10.0 mi SE 6.9 mph - N/A   Overcast
5:55 AM 50.0 °F 44.6 °F 82% 30.13 in 10.0 mi SE 6.9 mph - N/A   Overcast
6:15 AM 51.8 °F 44.6 °F 76% 30.14 in 10.0 mi SE 9.2 mph - N/A   Overcast
6:35 AM 51.8 °F 44.6 °F 76% 30.14 in 10.0 mi SE 8.1 mph - N/A   Overcast
6:55 AM 51.8 °F 44.6 °F 76% 30.15 in 10.0 mi SE 8.1 mph - N/A   Overcast
7:15 AM 51.8 °F 46.4 °F 82% 30.15 in 10.0 mi SE 6.9 mph - N/A   Overcast
7:35 AM 51.8 °F 46.4 °F 82% 30.17 in 10.0 mi SE 10.4 mph - N/A   Overcast
7:55 AM 51.8 °F 46.4 °F 82% 30.17 in 10.0 mi SSE 6.9 mph - N/A   Overcast
8:15 AM 51.8 °F 46.4 °F 82% 30.17 in 10.0 mi SSE 4.6 mph - N/A   Overcast
8:35 AM 51.8 °F 46.4 °F 82% 30.18 in 10.0 mi SSE 4.6 mph - N/A   Overcast
8:55 AM 51.8 °F 46.4 °F 82% 30.19 in 10.0 mi SSE 5.8 mph - N/A   Overcast
9:15 AM 51.8 °F 46.4 °F 82% 30.18 in 10.0 mi SE 8.1 mph - N/A   Overcast
9:35 AM 53.6 °F 46.4 °F 77% 30.19 in 10.0 mi SE 10.4 mph - N/A   Overcast
9:55 AM 53.6 °F 48.2 °F 82% 30.18 in 10.0 mi SE 11.5 mph 16.1 mph N/A   Overcast
10:15 AM 55.4 °F 50.0 °F 82% 30.19 in 10.0 mi SSE 12.7 mph - N/A   Overcast
10:35 AM 55.4 °F 50.0 °F 82% 30.18 in 10.0 mi SE 9.2 mph - N/A   Overcast
10:55 AM 55.4 °F 50.0 °F 82% 30.18 in 10.0 mi SE 10.4 mph - N/A   Overcast
11:15 AM 55.4 °F 50.0 °F 82% 30.16 in 10.0 mi SE 11.5 mph - N/A   Overcast
11:35 AM 55.4 °F 50.0 °F 82% 30.15 in 10.0 mi SE 15.0 mph - N/A   Overcast
11:55 AM 55.4 °F 50.0 °F 82% 30.15 in 10.0 mi SE 15.0 mph 20.7 mph N/A   Overcast
12:15 PM 55.4 °F 50.0 °F 82% 30.13 in 10.0 mi SE 16.1 mph 20.7 mph N/A   Overcast
12:35 PM 57.2 °F 50.0 °F 77% 30.13 in 10.0 mi SE 13.8 mph 20.7 mph N/A   Overcast
12:55 PM 55.4 °F 50.0 °F 82% 30.12 in 10.0 mi SSE 12.7 mph 19.6 mph N/A   Overcast
1:15 PM 55.4 °F 50.0 °F 82% 30.10 in 10.0 mi SE 13.8 mph - N/A   Overcast
1:35 PM 55.4 °F 50.0 °F 82% 30.10 in 10.0 mi SE 13.8 mph - N/A   Overcast
1:55 PM 55.4 °F 51.8 °F 88% 30.09 in 10.0 mi SE 13.8 mph - N/A Rain Light Rain
2:15 PM 57.2 °F 51.8 °F 82% 30.07 in 10.0 mi SE 16.1 mph - N/A   Overcast
2:35 PM 57.2 °F 51.8 °F 82% 30.07 in 10.0 mi SE 15.0 mph - N/A   Overcast
2:55 PM 57.2 °F 51.8 °F 82% 30.08 in 10.0 mi SSE 11.5 mph 19.6 mph N/A   Overcast
3:15 PM 55.4 °F 51.8 °F 88% 30.07 in 10.0 mi SE 16.1 mph - N/A   Overcast
3:35 PM 55.4 °F 51.8 °F 88% 30.07 in 7.0 mi SSE 15.0 mph 20.7 mph N/A   Overcast
3:55 PM 55.4 °F 53.6 °F 94% 30.05 in 2.5 mi SE 12.7 mph - N/A   Overcast
4:15 PM 55.4 °F 53.6 °F 94% 30.05 in 5.0 mi SE 13.8 mph - N/A   Overcast
4:35 PM 55.4 °F 53.6 °F 94% 30.04 in 7.0 mi SE 16.1 mph 21.9 mph N/A   Overcast
4:55 PM 55.4 °F 53.6 °F 94% 30.04 in 7.0 mi SE 13.8 mph 19.6 mph N/A   Overcast
5:15 PM 55.4 °F 53.6 °F 94% 30.05 in 7.0 mi SE 13.8 mph 18.4 mph N/A   Overcast
5:35 PM 55.4 °F 53.6 °F 94% 30.04 in 7.0 mi SE 15.0 mph 18.4 mph N/A   Overcast
5:55 PM 55.4 °F 53.6 °F 94% 30.02 in 7.0 mi SE 17.3 mph 21.9 mph N/A   Overcast
6:15 PM 55.4 °F 53.6 °F 94% 30.03 in 10.0 mi SE 13.8 mph 23.0 mph N/A   Overcast
6:35 PM 55.4 °F 53.6 °F 94% 30.04 in 10.0 mi SE 15.0 mph 21.9 mph N/A   Overcast
6:55 PM 55.4 °F 53.6 °F 94% 30.04 in 10.0 mi SE 12.7 mph 19.6 mph N/A   Overcast
7:15 PM 55.4 °F 53.6 °F 94% 30.04 in 10.0 mi SE 12.7 mph 17.3 mph N/A   Overcast
7:35 PM 55.4 °F 53.6 °F 94% 30.04 in 5.0 mi SE 13.8 mph - N/A   Overcast
7:55 PM 55.4 °F 51.8 °F 88% 30.04 in 10.0 mi SE 13.8 mph - N/A   Overcast
8:15 PM 55.4 °F 51.8 °F 88% 30.05 in 10.0 mi SE 12.7 mph 16.1 mph N/A   Overcast
8:35 PM 55.4 °F 51.8 °F 88% 30.04 in 10.0 mi SE 12.7 mph - N/A   Overcast
8:55 PM 55.4 °F 51.8 °F 88% 30.03 in 10.0 mi SE 12.7 mph - N/A   Overcast
9:15 PM 55.4 °F 53.6 °F 94% 30.02 in 10.0 mi SE 12.7 mph - N/A   Overcast
9:35 PM 55.4 °F 51.8 °F 88% 30.02 in 10.0 mi SE 13.8 mph - N/A   Overcast
9:55 PM 55.4 °F 51.8 °F 88% 30.02 in 10.0 mi SE 15.0 mph - N/A   Overcast
10:15 PM 55.4 °F 51.8 °F 88% 30.01 in 10.0 mi SE 15.0 mph 23.0 mph N/A   Overcast
10:35 PM 55.4 °F 51.8 °F 88% 30.01 in 10.0 mi SSE 11.5 mph - N/A   Mostly Cloudy
10:55 PM 55.4 °F 51.8 °F 88% 30.00 in 10.0 mi SSE 15.0 mph - N/A   Mostly Cloudy
11:15 PM 57.2 °F 53.6 °F 88% 29.99 in 10.0 mi SSE 15.0 mph - N/A   Overcast
11:35 PM 57.2 °F 53.6 °F 88% 29.98 in 10.0 mi SSE 17.3 mph - N/A   Overcast
11:55 PM 57.2 °F 53.6 °F 88% 29.98 in 10.0 mi SSE 19.6 mph 23.0 mph N/A   Overcast